STARLINK-33736, 63450

Orbit data source: Space-Track

STARLINK-33736, 63450 is a payload satellite owned by SpaceX/Seattle (US) in LEO that was launched on Fri, 04 Apr 2025 UTC via an FALCON 9 launch vehicle from the Air Force Western Test Range (AFWTR). Payload-class satellites include a variety of spacecraft equipped with specific instruments for various scientific and technological missions. These include communications satellites like Starlink; space stations such as the ISS; scientific satellites like the Hubble; Earth observation satellites from companies like Planet Labs, Umbra, and HawkEye 360; GPS; miniature CubeSats for education and research; and military/defense satellites.

Loading next visibility...
Identifier
63450, 2025-069T
Orbit
LEO
Country
Flag of USUS
Related business
Manufacturer
SpaceX/Seattle
Mission
Operational Commercial Communications
Bus & Motor
STARLINK V2MO, Unknown motor
Mass
575 kg wet, ~530 kg dry
Launch date (UTC)
2025-04-04 (1 year ago)
Launch vehicle
FALCON 9
Launch site
Air Force Western Test Range (AFWTR)
Object type
Payload
Rocket body
Debris
Shape & HBR
Box + 2 Pan, 17.7 m
Radar Cross Section
36.964 m², Large (>1 m²)

Expand to show TLE details & history
Last TLE update: 8 hours ago

TLE from 8 hours ago
0 STARLINK-33736
1 63450U 25069T   26145.43131309  .00028973  00000-0  67226-3 0  9997
2 63450  53.1578 143.2178 0001064  77.0527 283.0598 15.42180570 65148
Epoch: 2026-05-25T10:21Z
TLE epoch observation values (Epoch: 2026-05-25T10:21:05.450Z)
Latitude
-0.00003°
Longitude
104.92587°
Altitude
440.415 km
Speed
7.649 km/s
True Right ascension
09h 32m 52s
True Declination
0° 00' 00"
Sunlit
Object was in daylight at epoch
Visualization orbit readout
Latitude
Unknown
Longitude
Unknown
Altitude
Unknown
Speed
Unknown
Apparent Right ascension
Unknown
Apparent Declination
Unknown
Sunlit
N/A
Visualization observer readout
Local Sidereal Time
03:05:58
Azimuth
Unknown
Elevation
Unknown
Doppler factor
Unknown
Orbital elements
Apogee altitude
440.659 km
Perigee altitude
439.208 km
Semi-major axis
6,818.07 km
Eccentricity
0.00011
Inclination
53.1578°
RAAN
143.2178°
Arg. of periapsis
77.0527°
True anomaly
283.04792°
Mean anomaly
283.0598°
Eccentric anomaly
283.05386°
Mean motion
3.85524 °/min
Orbital period
93.38 mins
BSTAR
0.00067226
Loading maneuver chart data...
Computing Atmospheric mass density...
Loading historical data...
Loading historical data...
Loading historical data...
Loading historical data...
Loading historical data...
Loading historical data...
Loading historical data...

Documentation

Showing up to 5 results
|